TimeMST,TemperatureF,Dew PointF,Humidity,Sea Level PressureIn,VisibilityMPH,Wind Direction,Wind SpeedMPH,Gust SpeedMPH,PrecipitationIn,Events,Conditions,WindDirDegrees,DateUTC
12:53 AM,53.1,35.1,50,30.10,10.0,SSE,12.7,-,N/A,,Clear,150,2012-12-05 07:53:00
1:53 AM,55.0,35.1,47,30.08,10.0,SE,9.2,-,N/A,,Clear,140,2012-12-05 08:53:00
2:53 AM,53.1,35.1,50,30.08,10.0,ESE,3.5,-,N/A,,Clear,120,2012-12-05 09:53:00
3:53 AM,52.0,35.1,53,30.07,10.0,SE,8.1,-,N/A,,Clear,140,2012-12-05 10:53:00
4:53 AM,50.0,33.1,52,30.07,10.0,SSE,5.8,-,N/A,,Clear,160,2012-12-05 11:53:00
5:53 AM,53.1,34.0,48,30.07,10.0,ESE,4.6,-,N/A,,Clear,110,2012-12-05 12:53:00
7:53 AM,52.0,33.1,49,30.11,10.0,SSE,8.1,-,N/A,,Clear,160,2012-12-05 14:53:00
8:53 AM,57.0,33.1,40,30.11,10.0,SE,8.1,-,N/A,,Clear,140,2012-12-05 15:53:00
9:53 AM,66.9,32.0,27,30.08,10.0,SSE,8.1,-,N/A,,Clear,160,2012-12-05 16:53:00
10:53 AM,70.0,30.9,24,30.06,10.0,South,3.5,-,N/A,,Clear,180,2012-12-05 17:53:00
11:53 AM,73.9,30.9,21,30.03,10.0,Variable,3.5,-,N/A,,Clear,0,2012-12-05 18:53:00
12:53 PM,77.0,30.0,18,29.99,10.0,SSW,3.5,-,N/A,,Clear,210,2012-12-05 19:53:00
1:53 PM,79.0,26.1,14,29.96,10.0,WNW,4.6,-,N/A,,Clear,290,2012-12-05 20:53:00
2:53 PM,80.1,27.0,14,29.94,10.0,Calm,Calm,-,N/A,,Clear,0,2012-12-05 21:53:00
3:53 PM,81.0,27.0,14,29.92,10.0,Calm,Calm,-,N/A,,Clear,0,2012-12-05 22:53:00
4:53 PM,78.1,28.9,17,29.92,10.0,Calm,Calm,-,N/A,,Clear,0,2012-12-05 23:53:00
5:53 PM,73.0,28.9,20,29.93,10.0,NW,3.5,-,N/A,,Clear,320,2012-12-06 00:53:00
6:53 PM,69.1,30.0,23,29.95,10.0,Calm,Calm,-,N/A,,Clear,0,2012-12-06 01:53:00
7:53 PM,64.9,30.9,28,29.96,10.0,SSW,5.8,-,N/A,,Clear,200,2012-12-06 02:53:00
8:53 PM,60.1,30.0,32,29.97,10.0,SSE,5.8,-,N/A,,Clear,160,2012-12-06 03:53:00
9:53 PM,55.9,28.0,34,29.96,10.0,SSE,6.9,-,N/A,,Clear,160,2012-12-06 04:53:00
10:53 PM,54.0,27.0,35,29.96,10.0,SSE,8.1,-,N/A,,Clear,160,2012-12-06 05:53:00
11:53 PM,53.1,27.0,37,29.95,10.0,SE,6.9,-,N/A,,Clear,140,2012-12-06 06:53:00